"Pseudo-MPEC" for ZTB6409

Created 2018 Oct 19 2:18:35 UT using Find_Orb

Click here for an explanation of pseudo-MPECs

 
 Astrometry: 
     ZTB6409  C2018 10 10.25264 01 15 37.01 +28 32 30.9          21.1 GVNEOCPG96
     ZTB6409  C2018 10 10.25834 01 15 36.63 +28 32 25.3          21.3 GVNEOCPG96
     ZTB6409  C2018 10 10.26404 01 15 36.25 +28 32 19.8          21.2 GVNEOCPG96
     ZTB6409  C2018 10 10.26974 01 15 35.85 +28 32 14.4          21.2 GVNEOCPG96
     ZTB6409  C2018 10 10UeAstrometryJB%N3;?=^J%R=lAI@!-Rfpj!)#x3I-Ss)XGpsAgXV06
     ZTB6409  C2018 10 10kldb_+1Y-1si!NrX+'3^pqfjCThFfP+rbdYZu,IP[A/a'6O?kE6mV06
     ZTB6409  C2018 10 102[6f]X2$.rvJ\/_2;redacted;bv^K^e3^-2OTD0D0GwKdo!i+0NV06
     ZTB6409  C2018 10 10qL64t9:9/'x:MJ^7nI^Jd5Ie$Tv,BnXq-s0=Tb3ni^-,0?W0)FYnV06
     ZTB6409 KC2018 10 16JgD0mRaY#I,4@`PSU@kRL?c\/oK3\oCPseeJu7)S`5AZuq4*kYleH21
     ZTB6409 KC2018 10 16LeNbB]Wmp:9Dfi[oBv^=V44DrZXsCyErg/M4gQs1=bGg^w%!-mj,H21
     ZTB6409 KC2018 10 16fJd9Palu3.=C\QI#\BiT_jAwASNnw44GRMQ:sM(CpOsA1pdNEOCPH21
     ZTB6409  C2018 10 18.17744 01 07 06.02 +26 14 23.0          21.9 GVNEOCPI52
     ZTB6409  C2018 10 18.18243 01 07 05.65 +26 14 18.1          21.9 GVNEOCPI52
     ZTB6409  C2018 10 18.18493 01 07 05.44 +26 14 15.0          22.0 GVNEOCPI52

Station data:
(G96) Mt. Lemmon Survey  (N32.442754 W110.788720)  US/Arizona.  Observers B.
   M. Africano, E. J. Christensen, D. C. Fuls, A. R. Gibbs, A. D. Grauer, J.
   A. Johnson, R. A. Kowalski, S. M. Larson, G. J. Leonard, R. L. Seaman, F.
   C. Shelly. 1.5-m reflector + 10K CCD.
(H21) Astronomical Research Observatory, Westfield  (N39.483057 W87.968270)
   US/Illinois. 0.76-m f/3.0 astrograph + CCD.
(I52) Steward Observatory, Mt. Lemmon Station  (N32.442547 W110.788920)
   US/Arizona.  Observers B. M. Africano, E. J. Christensen, D. C. Fuls, A.
   R. Gibbs, A. D. Grauer, J. A. Johnson, R. A. Kowalski, S. M. Larson, G. J.
   Leonard, R. L. Seaman, F. C. Shelly. 1.0-m reflector + CCD.
(V06) Catalina Sky Survey-Kuiper  (N32.416847 W110.732550)  US/Arizona.
   Observers B. M. Africano, E. J. Christensen, D. C. Fuls, A. R. Gibbs, A.
   D. Grauer, J. A. Johnson, R. A. Kowalski, S. M. Larson, G. J. Leonard, R.
   L. Seaman, F. C. Shelly. 1.55-m reflector + CCD.

Orbital elements:  ZTB6409
   Perihelion 2017 Jul 25.919140 +/- 6.79 TT = 22:03:33 (JD 2457960.419140)
Epoch 2018 Oct 18.0 TT = JDT 2458409.5   Earth MOID: 0.7167   AutoNEOCP
M 175.59078 +/- 2.3                 (J2000 ecliptic)
n   0.39100038 +/- 0.000826         Peri.  335.62071 +/- 1.9
a   1.85218597 +/- 0.00261          Node   231.90066 +/- 0.16
e   0.0722756 +/- 0.00151           Incl.   19.10893 +/- 0.15
P   2.52/920.70d           H 19.5   G  0.15   U  8.0  
q 1.71831811 +/- 0.000391    Q 1.98605384 +/- 0.00557
From 14 observations 2018 Oct. 10-18; mean residual 0".28
Residuals in arcseconds: 
181010 G96  .03-  .49+    181010 V06  .11-  .72-    181016 H21  .11+  .22+    
181010 G96  .09+  .28+    181010 V06  .13-  .01-    181018 I52  .58+  .36-    
181010 G96  .20+  .17+    181010 V06  .03-  .11-    181018 I52  .01+  .31+    
181010 G96  .06+  .17+    181016 H21  .19-  .03+    181018 I52  .61-  .00     
181010 V06  .08-  .32-    181016 H21  .12+  .14-    

Ephemerides (geocentric):
Date (UTC) HH   RA              Dec         delta   r     elong  mag " sig PA
---- -- -- --  -------------   -----------  ------ ------ -----  --- ---- ---
2018 10 19 02  01 06 08.980   +25 57 16.16  1.0129 1.9858 162.6 21.6  .39 130
2018 10 19 03  01 06 06.389   +25 56 28.51  1.0129 1.9858 162.6 21.6  .41 130
2018 10 19 04  01 06 03.799   +25 55 40.83  1.0129 1.9858 162.6 21.6  .42 130
2018 10 19 05  01 06 01.211   +25 54 53.12  1.0128 1.9858 162.6 21.6  .43 130
2018 10 19 06  01 05 58.624   +25 54 05.39  1.0128 1.9858 162.6 21.6  .44 130
2018 10 19 07  01 05 56.038   +25 53 17.62  1.0128 1.9858 162.6 21.6  .46 129
2018 10 19 08  01 05 53.454   +25 52 29.83  1.0128 1.9858 162.6 21.6  .47 129
2018 10 19 09  01 05 50.872   +25 51 42.01  1.0128 1.9858 162.6 21.6  .48 129
2018 10 19 10  01 05 48.290   +25 50 54.16  1.0128 1.9858 162.6 21.6  .50 129
2018 10 19 11  01 05 45.711   +25 50 06.28  1.0128 1.9858 162.6 21.6  .51 129
2018 10 19 12  01 05 43.132   +25 49 18.37  1.0128 1.9858 162.6 21.6  .52 129
2018 10 19 13  01 05 40.556   +25 48 30.44  1.0128 1.9858 162.6 21.6  .54 128
2018 10 19 14  01 05 37.980   +25 47 42.48  1.0128 1.9858 162.6 21.6  .55 128
2018 10 19 15  01 05 35.406   +25 46 54.49  1.0128 1.9858 162.6 21.6  .57 128
2018 10 19 16  01 05 32.834   +25 46 06.48  1.0128 1.9858 162.7 21.6  .58 128
2018 10 19 17  01 05 30.263   +25 45 18.44  1.0128 1.9858 162.7 21.6  .59 128
2018 10 19 18  01 05 27.694   +25 44 30.37  1.0128 1.9858 162.7 21.6  .61 128
2018 10 19 19  01 05 25.126   +25 43 42.27  1.0128 1.9858 162.7 21.6  .62 128
2018 10 19 20  01 05 22.559   +25 42 54.14  1.0128 1.9858 162.7 21.6  .64 127
2018 10 19 21  01 05 19.995   +25 42 05.99  1.0128 1.9858 162.7 21.6  .65 127
2018 10 19 22  01 05 17.431   +25 41 17.81  1.0128 1.9858 162.7 21.6  .67 127
2018 10 19 23  01 05 14.870   +25 40 29.61  1.0128 1.9858 162.7 21.6  .68 127
2018 10 20 00  01 05 12.309   +25 39 41.38  1.0128 1.9858 162.7 21.6  .70 127
2018 10 20 01  01 05 09.751   +25 38 53.12  1.0128 1.9858 162.7 21.6  .71 127
2018 10 20 02  01 05 07.194   +25 38 04.84  1.0128 1.9858 162.7 21.6  .73 126
2018 10 20 03  01 05 04.638   +25 37 16.52  1.0128 1.9858 162.7 21.6  .74 126
2018 10 20 04  01 05 02.084   +25 36 28.19  1.0128 1.9858 162.7 21.6  .76 126
2018 10 20 05  01 04 59.532   +25 35 39.82  1.0128 1.9858 162.7 21.6  .77 126
2018 10 20 06  01 04 56.981   +25 34 51.43  1.0128 1.9858 162.7 21.6  .79 126
2018 10 20 07  01 04 54.432   +25 34 03.02  1.0128 1.9858 162.7 21.6  .80 126
2018 10 20 08  01 04 51.884   +25 33 14.58  1.0128 1.9858 162.7 21.6  .82 126
2018 10 20 09  01 04 49.338   +25 32 26.11  1.0128 1.9858 162.7 21.6  .84 125
2018 10 20 10  01 04 46.794   +25 31 37.62  1.0128 1.9858 162.7 21.6  .85 125
2018 10 20 11  01 04 44.251   +25 30 49.10  1.0129 1.9858 162.7 21.6  .87 125
2018 10 20 12  01 04 41.710   +25 30 00.55  1.0129 1.9858 162.7 21.6  .88 125
2018 10 20 13  01 04 39.171   +25 29 11.98  1.0129 1.9858 162.7 21.6  .90 125
2018 10 20 14  01 04 36.633   +25 28 23.39  1.0129 1.9858 162.7 21.6  .92 125
2018 10 20 15  01 04 34.097   +25 27 34.77  1.0129 1.9859 162.7 21.6  .93 125
2018 10 20 16  01 04 31.562   +25 26 46.12  1.0129 1.9859 162.7 21.6  .95 125
2018 10 20 17  01 04 29.029   +25 25 57.45  1.0129 1.9859 162.7 21.6  .97 124
2018 10 20 18  01 04 26.498   +25 25 08.76  1.0129 1.9859 162.8 21.6  .98 124
2018 10 20 19  01 04 23.969   +25 24 20.04  1.0129 1.9859 162.8 21.6  1.0 124
2018 10 20 20  01 04 21.441   +25 23 31.29  1.0129 1.9859 162.8 21.6  1.0 124
2018 10 20 21  01 04 18.915   +25 22 42.52  1.0129 1.9859 162.8 21.6  1.0 124
2018 10 20 22  01 04 16.391   +25 21 53.73  1.0130 1.9859 162.8 21.6  1.1 124
2018 10 20 23  01 04 13.868   +25 21 04.91  1.0130 1.9859 162.8 21.6  1.1 124
2018 10 21 00  01 04 11.347   +25 20 16.07  1.0130 1.9859 162.8 21.6  1.1 124
2018 10 21 01  01 04 08.828   +25 19 27.20  1.0130 1.9859 162.8 21.6  1.1 123